Time,TemperatureF,DewpointF,PressureIn,WindDirection,WindDirectionDegrees,WindSpeedMPH,WindSpeedGustMPH,Humidity,HourlyPrecipIn,Conditions,Clouds,dailyrainin,SoftwareType,DateUTC
2013-03-12 00:02:00,52.9,39.7,30.02,North,0,0.0,0.0,60,0.00,,,-99.99,,2013-03-12 04:02:00,
2013-03-12 00:04:00,52.7,39.5,30.02,North,0,0.0,0.0,60,0.00,,,-99.99,,2013-03-12 04:04:00,
2013-03-12 00:10:00,52.9,39.7,30.02,North,0,0.0,0.0,60,0.00,,,-99.99,,2013-03-12 04:10:00,
2013-03-12 00:14:00,52.9,39.7,30.02,North,0,0.0,0.0,60,0.00,,,-99.99,,2013-03-12 04:14:00,
2013-03-12 00:20:00,52.9,39.7,30.02,North,0,0.0,0.0,60,0.00,,,-99.99,,2013-03-12 04:20:00,
2013-03-12 00:26:00,53.1,39.9,30.02,North,0,0.0,0.0,60,0.00,,,-99.99,,2013-03-12 04:26:00,
2013-03-12 00:32:00,52.9,39.7,29.99,North,0,0.0,0.0,60,0.00,,,-99.99,,2013-03-12 04:32:00,
2013-03-12 00:38:00,52.9,39.7,29.99,North,0,0.0,0.0,60,0.00,,,-99.99,,2013-03-12 04:38:00,
2013-03-12 00:44:00,52.7,40.0,29.99,North,0,0.0,0.0,61,0.00,,,-99.99,,2013-03-12 04:44:00,
2013-03-12 00:50:00,52.3,40.0,29.99,North,0,0.0,0.0,62,0.00,,,-99.99,,2013-03-12 04:50:00,
2013-03-12 00:56:00,52.0,40.1,29.99,North,0,0.0,0.0,63,0.00,,,-99.99,,2013-03-12 04:56:00,
2013-03-12 01:02:00,51.6,40.2,29.96,North,0,0.0,0.0,64,0.00,,,-99.99,,2013-03-12 05:02:00,
2013-03-12 01:08:00,51.4,40.4,29.96,North,0,0.0,0.0,65,0.00,,,-99.99,,2013-03-12 05:08:00,
2013-03-12 01:14:00,51.3,40.6,29.96,North,0,0.0,0.0,66,0.00,,,-99.99,,2013-03-12 05:14:00,
2013-03-12 01:20:00,51.1,41.2,29.96,North,0,0.0,0.0,68,0.00,,,-99.99,,2013-03-12 05:20:00,
2013-03-12 01:26:00,51.1,41.2,29.96,North,0,0.0,0.0,68,0.00,,,-99.99,,2013-03-12 05:26:00,
2013-03-12 01:32:00,51.1,41.6,29.96,North,0,0.0,0.0,69,0.00,,,-99.99,,2013-03-12 05:32:00,
2013-03-12 01:38:00,50.9,41.7,29.96,North,0,0.0,0.0,70,0.00,,,-99.99,,2013-03-12 05:38:00,
2013-03-12 01:44:00,50.9,42.1,29.96,North,0,0.0,0.0,71,0.00,,,-99.99,,2013-03-12 05:44:00,
2013-03-12 01:50:00,50.9,42.1,29.96,North,0,0.0,0.0,71,0.00,,,-99.99,,2013-03-12 05:50:00,
2013-03-12 01:56:00,50.9,42.4,29.96,North,0,0.0,0.0,72,0.00,,,-99.99,,2013-03-12 05:56:00,
2013-03-12 02:02:00,51.1,42.9,29.96,North,0,0.0,0.0,73,0.00,,,-99.99,,2013-03-12 06:02:00,
2013-03-12 02:08:00,51.1,42.9,29.96,North,0,0.0,0.0,73,0.00,,,-99.99,,2013-03-12 06:08:00,
2013-03-12 02:14:00,51.3,43.1,29.96,North,0,0.0,0.0,73,0.00,,,-99.99,,2013-03-12 06:14:00,
2013-03-12 02:20:00,51.4,43.5,29.96,North,0,0.0,0.0,74,0.00,,,-99.99,,2013-03-12 06:20:00,
2013-03-12 02:26:00,51.4,43.5,29.96,North,0,0.0,0.0,74,0.00,,,-99.99,,2013-03-12 06:26:00,
2013-03-12 02:32:00,51.4,43.5,29.96,North,0,0.0,0.0,74,0.00,,,-99.99,,2013-03-12 06:32:00,
2013-03-12 02:38:00,51.4,43.5,29.96,North,0,0.0,0.0,74,0.00,,,-99.99,,2013-03-12 06:38:00,
2013-03-12 02:44:00,51.4,43.5,29.93,North,0,0.0,0.0,74,0.00,,,-99.99,,2013-03-12 06:44:00,
2013-03-12 02:50:00,51.3,43.4,29.93,North,0,0.0,0.0,74,0.00,,,-99.99,,2013-03-12 06:50:00,
2013-03-12 02:56:00,51.3,43.8,29.93,North,0,0.0,0.0,75,0.00,,,-99.99,,2013-03-12 06:56:00,
2013-03-12 03:02:00,51.1,43.6,29.93,North,0,0.0,0.0,75,0.00,,,-99.99,,2013-03-12 07:02:00,
2013-03-12 03:08:00,51.1,43.9,29.93,North,0,0.0,0.0,76,0.00,,,-99.99,,2013-03-12 07:08:00,
2013-03-12 03:14:00,50.9,43.7,29.93,North,0,0.0,0.0,76,0.00,,,-99.99,,2013-03-12 07:14:00,
2013-03-12 03:20:00,50.9,44.0,29.93,North,0,0.0,0.0,77,0.04,,,-99.99,,2013-03-12 07:20:00,
2013-03-12 03:26:00,50.7,44.1,29.93,North,0,0.0,0.0,78,0.04,,,-99.99,,2013-03-12 07:26:00,
2013-03-12 03:32:00,50.7,44.1,29.90,North,0,0.0,0.0,78,0.04,,,-99.99,,2013-03-12 07:32:00,
2013-03-12 03:38:00,50.5,44.2,29.90,North,0,0.0,0.0,78,0.04,,,-99.99,,2013-03-12 07:38:00,
2013-03-12 03:44:00,50.5,44.5,29.90,North,0,0.0,0.0,79,0.04,,,-99.99,,2013-03-12 07:44:00,
2013-03-12 03:50:00,50.5,44.5,29.90,North,0,0.0,0.0,79,0.04,,,-99.99,,2013-03-12 07:50:00,
2013-03-12 03:56:00,50.7,45.0,29.90,North,0,0.0,0.0,80,0.04,,,-99.99,,2013-03-12 07:56:00,
2013-03-12 04:02:00,50.7,45.2,29.90,North,0,0.0,0.0,81,0.04,,,-99.99,,2013-03-12 08:02:00,
2013-03-12 04:08:00,50.7,45.5,29.90,North,0,0.0,0.0,82,0.04,,,-99.99,,2013-03-12 08:08:00,
2013-03-12 04:14:00,50.7,45.8,29.90,North,0,0.0,0.0,83,0.04,,,-99.99,,2013-03-12 08:14:00,
2013-03-12 04:20:00,50.7,45.8,29.90,North,0,0.0,0.0,83,0.00,,,-99.99,,2013-03-12 08:20:00,
2013-03-12 04:26:00,50.7,46.0,29.90,North,0,0.0,0.0,83,0.00,,,-99.99,,2013-03-12 08:26:00,
2013-03-12 04:32:00,50.7,46.0,29.87,North,0,0.0,0.0,83,0.00,,,-99.99,,2013-03-12 08:32:00,
2013-03-12 04:38:00,50.7,46.0,29.87,North,0,0.0,0.0,83,0.00,,,-99.99,,2013-03-12 08:38:00,
2013-03-12 04:44:00,50.7,46.3,29.87,North,0,0.0,0.0,84,0.00,,,-99.99,,2013-03-12 08:44:00,
2013-03-12 04:50:00,50.7,46.3,29.87,North,0,0.0,0.0,84,0.00,,,-99.99,,2013-03-12 08:50:00,
2013-03-12 04:56:00,50.9,46.7,29.87,North,0,0.0,0.0,85,0.00,,,-99.99,,2013-03-12 08:56:00,
2013-03-12 05:02:00,50.9,46.7,29.87,North,0,0.0,0.0,85,0.00,,,-99.99,,2013-03-12 09:02:00,
2013-03-12 05:08:00,50.9,46.7,29.87,North,0,0.0,0.0,85,0.00,,,-99.99,,2013-03-12 09:08:00,
2013-03-12 05:14:00,50.9,46.7,29.87,North,0,0.0,0.0,85,0.00,,,-99.99,,2013-03-12 09:14:00,
2013-03-12 05:20:00,50.9,47.0,29.87,North,0,0.0,0.0,86,0.00,,,-99.99,,2013-03-12 09:20:00,
2013-03-12 05:26:00,50.9,47.0,29.87,North,0,0.0,0.0,86,0.00,,,-99.99,,2013-03-12 09:26:00,
2013-03-12 05:32:00,50.9,47.0,29.87,North,0,0.0,0.0,86,0.00,,,-99.99,,2013-03-12 09:32:00,
2013-03-12 05:38:00,50.9,47.0,29.87,North,0,0.0,0.0,86,0.00,,,-99.99,,2013-03-12 09:38:00,
2013-03-12 05:44:00,50.9,47.2,29.87,North,0,0.0,0.0,87,0.00,,,-99.99,,2013-03-12 09:44:00,
2013-03-12 05:50:00,50.9,47.2,29.87,North,0,0.0,0.0,87,0.00,,,-99.99,,2013-03-12 09:50:00,
2013-03-12 05:56:00,51.1,47.4,29.87,North,0,0.0,0.0,87,0.00,,,-99.99,,2013-03-12 09:56:00,
2013-03-12 06:02:00,51.1,47.6,29.87,North,0,0.0,0.0,87,0.00,,,-99.99,,2013-03-12 10:02:00,
2013-03-12 06:08:00,51.1,47.6,29.87,North,0,0.0,0.0,87,0.00,,,-99.99,,2013-03-12 10:08:00,
2013-03-12 06:14:00,51.3,47.8,29.87,North,0,0.0,0.0,87,0.04,,,-99.99,,2013-03-12 10:14:00,
2013-03-12 06:20:00,51.3,47.8,29.87,North,0,0.0,0.0,87,0.04,,,-99.99,,2013-03-12 10:20:00,
2013-03-12 06:26:00,51.3,47.8,29.87,North,0,0.0,0.0,87,0.04,,,-99.99,,2013-03-12 10:26:00,
2013-03-12 06:32:00,51.3,48.0,29.84,North,0,0.0,0.0,88,0.04,,,-99.99,,2013-03-12 10:32:00,
2013-03-12 06:38:00,51.3,48.0,29.84,North,0,0.0,0.0,88,0.04,,,-99.99,,2013-03-12 10:38:00,
2013-03-12 06:44:00,51.3,48.0,29.84,North,0,0.0,0.0,88,0.04,,,-99.99,,2013-03-12 10:44:00,
2013-03-12 06:50:00,51.3,48.0,29.84,North,0,0.0,0.0,88,0.04,,,-99.99,,2013-03-12 10:50:00,
2013-03-12 06:56:00,51.3,48.3,29.84,North,0,0.0,0.0,89,0.04,,,-99.99,,2013-03-12 10:56:00,
2013-03-12 07:02:00,51.3,48.3,29.84,North,0,0.0,0.0,89,0.04,,,-99.99,,2013-03-12 11:02:00,
2013-03-12 07:08:00,51.4,48.3,29.84,North,0,0.0,0.0,89,0.08,,,-99.99,,2013-03-12 11:08:00,
2013-03-12 07:14:00,51.4,48.3,29.84,North,0,0.0,0.0,89,0.04,,,-99.99,,2013-03-12 11:14:00,
2013-03-12 07:20:00,51.4,48.3,29.84,North,0,0.0,0.0,89,0.04,,,-99.99,,2013-03-12 11:20:00,
2013-03-12 07:26:00,51.4,48.3,29.84,North,0,0.0,0.0,89,0.08,,,-99.99,,2013-03-12 11:26:00,
2013-03-12 07:32:00,51.6,48.8,29.84,North,0,0.0,0.0,89,0.08,,,-99.99,,2013-03-12 11:32:00,
2013-03-12 07:38:00,51.6,48.8,29.84,North,0,0.0,0.0,89,0.08,,,-99.99,,2013-03-12 11:38:00,
2013-03-12 07:44:00,51.6,48.8,29.81,North,0,0.0,0.0,89,0.08,,,-99.99,,2013-03-12 11:44:00,
2013-03-12 07:50:00,51.6,48.8,29.81,North,0,0.0,0.0,89,0.13,,,-99.99,,2013-03-12 11:50:00,
2013-03-12 07:56:00,51.8,49.0,29.81,North,0,0.0,0.0,89,0.13,,,-99.99,,2013-03-12 11:56:00,
2013-03-12 08:02:00,51.8,49.2,29.81,North,0,0.0,0.0,90,0.13,,,-99.99,,2013-03-12 12:02:00,
2013-03-12 08:08:00,52.0,49.4,29.81,North,0,0.0,0.0,90,0.12,,,-99.99,,2013-03-12 12:08:00,
2013-03-12 08:14:00,52.0,49.4,29.81,North,0,0.0,0.0,90,0.12,,,-99.99,,2013-03-12 12:14:00,
2013-03-12 08:20:00,52.2,49.6,29.81,North,0,0.0,0.0,90,0.12,,,-99.99,,2013-03-12 12:20:00,
2013-03-12 08:26:00,52.2,49.8,29.81,North,0,0.0,0.0,91,0.13,,,-99.99,,2013-03-12 12:26:00,
2013-03-12 08:32:00,52.3,49.9,29.78,North,0,0.0,0.0,91,0.13,,,-99.99,,2013-03-12 12:32:00,
2013-03-12 08:38:00,52.5,50.1,29.78,North,0,0.0,0.0,91,0.13,,,-99.99,,2013-03-12 12:38:00,
2013-03-12 08:44:00,52.5,50.1,29.81,North,0,0.0,0.0,91,0.13,,,-99.99,,2013-03-12 12:44:00,
2013-03-12 08:50:00,52.7,50.2,29.81,North,0,0.0,0.0,91,0.08,,,-99.99,,2013-03-12 12:50:00,
2013-03-12 08:56:00,52.7,50.4,29.81,North,0,0.0,0.0,92,0.08,,,-99.99,,2013-03-12 12:56:00,
2013-03-12 09:02:00,52.7,50.4,29.78,North,0,0.0,0.0,92,0.12,,,-99.99,,2013-03-12 13:02:00,
2013-03-12 09:08:00,52.7,50.4,29.78,North,0,0.0,0.0,92,0.08,,,-99.99,,2013-03-12 13:08:00,
2013-03-12 09:14:00,52.9,50.6,29.78,North,0,0.0,0.0,92,0.08,,,-99.99,,2013-03-12 13:14:00,
2013-03-12 09:20:00,52.9,50.6,29.78,North,0,0.0,0.0,92,0.08,,,-99.99,,2013-03-12 13:20:00,
2013-03-12 09:26:00,52.9,50.6,29.78,North,0,0.0,0.0,92,0.04,,,-99.99,,2013-03-12 13:26:00,
2013-03-12 09:32:00,52.9,50.6,29.78,North,0,0.0,0.0,92,0.04,,,-99.99,,2013-03-12 13:32:00,
2013-03-12 09:38:00,52.9,50.6,29.78,North,0,0.0,0.0,92,0.04,,,-99.99,,2013-03-12 13:38:00,
2013-03-12 09:44:00,53.1,50.8,29.78,North,0,0.0,0.0,92,0.04,,,-99.99,,2013-03-12 13:44:00,
2013-03-12 09:50:00,53.1,50.8,29.78,North,0,0.0,0.0,92,0.04,,,-99.99,,2013-03-12 13:50:00,
2013-03-12 09:56:00,53.1,51.0,29.78,North,0,0.0,0.0,92,0.04,,,-99.99,,2013-03-12 13:56:00,
2013-03-12 10:02:00,53.1,51.0,29.75,North,0,0.0,0.0,92,0.00,,,-99.99,,2013-03-12 14:02:00,
2013-03-12 10:08:00,53.2,51.1,29.75,North,0,0.0,0.0,92,0.00,,,-99.99,,2013-03-12 14:08:00,
2013-03-12 10:14:00,53.1,51.0,29.75,North,0,0.0,0.0,92,0.00,,,-99.99,,2013-03-12 14:14:00,
2013-03-12 10:20:00,53.2,51.1,29.75,North,0,0.0,0.0,92,0.00,,,-99.99,,2013-03-12 14:20:00,
2013-03-12 10:26:00,53.4,51.3,29.75,North,0,0.0,0.0,92,0.04,,,-99.99,,2013-03-12 14:26:00,
2013-03-12 10:32:00,53.4,51.3,29.75,North,0,0.0,0.0,92,0.04,,,-99.99,,2013-03-12 14:32:00,
2013-03-12 10:38:00,53.2,51.1,29.75,North,0,0.0,0.0,92,0.04,,,-99.99,,2013-03-12 14:38:00,
2013-03-12 10:44:00,53.2,51.1,29.75,North,0,0.0,0.0,92,0.08,,,-99.99,,2013-03-12 14:44:00,
2013-03-12 10:50:00,53.2,51.1,29.75,North,0,0.0,0.0,92,0.08,,,-99.99,,2013-03-12 14:50:00,
2013-03-12 10:56:00,53.2,51.1,29.75,North,0,0.0,0.0,92,0.08,,,-99.99,,2013-03-12 14:56:00,
2013-03-12 11:02:00,53.2,51.1,29.72,North,0,0.0,0.0,92,0.13,,,-99.99,,2013-03-12 15:02:00,
2013-03-12 11:08:00,53.4,51.3,29.72,North,0,0.0,0.0,92,0.25,,,-99.99,,2013-03-12 15:08:00,
2013-03-12 11:14:00,53.4,51.5,29.75,North,0,0.0,0.0,93,0.29,,,-99.99,,2013-03-12 15:14:00,
2013-03-12 11:20:00,53.8,51.7,29.75,North,0,0.0,0.0,92,0.29,,,-99.99,,2013-03-12 15:20:00,
2013-03-12 11:26:00,54.0,52.1,29.75,North,0,0.0,0.0,93,0.29,,,-99.99,,2013-03-12 15:26:00,
2013-03-12 11:32:00,54.1,52.2,29.75,North,0,0.0,0.0,93,0.29,,,-99.99,,2013-03-12 15:32:00,
2013-03-12 11:38:00,54.3,52.4,29.75,North,0,0.0,0.0,93,0.29,,,-99.99,,2013-03-12 15:38:00,
2013-03-12 11:44:00,54.7,52.8,29.75,North,0,0.0,0.0,93,0.29,,,-99.99,,2013-03-12 15:44:00,
2013-03-12 11:50:00,54.9,53.0,29.75,North,0,0.0,0.0,93,0.29,,,-99.99,,2013-03-12 15:50:00,
2013-03-12 11:56:00,55.0,53.1,29.75,North,0,0.0,0.0,93,0.29,,,-99.99,,2013-03-12 15:56:00,
2013-03-12 12:02:00,55.0,53.1,29.75,North,0,0.0,0.0,93,0.25,,,-99.99,,2013-03-12 16:02:00,
2013-03-12 12:08:00,55.2,53.3,29.75,North,0,0.0,0.0,93,0.12,,,-99.99,,2013-03-12 16:08:00,
2013-03-12 12:13:00,55.2,53.3,29.75,North,0,0.0,0.0,93,0.12,,,-99.99,,2013-03-12 16:13:00,
2013-03-12 12:20:00,55.4,53.5,29.75,North,0,0.0,0.0,93,0.13,,,-99.99,,2013-03-12 16:20:00,
2013-03-12 12:26:00,55.4,53.5,29.75,North,0,0.0,0.0,93,0.08,,,-99.99,,2013-03-12 16:26:00,
2013-03-12 12:32:00,55.6,53.7,29.75,North,0,0.0,0.0,93,0.08,,,-99.99,,2013-03-12 16:32:00,
2013-03-12 12:38:00,55.0,53.1,29.75,North,0,0.0,0.0,93,0.08,,,-99.99,,2013-03-12 16:38:00,
2013-03-12 12:44:00,54.1,52.0,29.75,North,0,0.0,0.0,92,0.04,,,-99.99,,2013-03-12 16:44:00,
2013-03-12 12:50:00,53.2,51.1,29.75,North,0,0.0,0.0,92,0.04,,,-99.99,,2013-03-12 16:50:00,
2013-03-12 12:56:00,52.5,50.4,29.75,North,0,0.0,0.0,92,0.04,,,-99.99,,2013-03-12 16:56:00,
2013-03-12 13:02:00,52.7,50.6,29.78,North,0,0.0,0.0,92,0.04,,,-99.99,,2013-03-12 17:02:00,
2013-03-12 13:08:00,52.9,51.0,29.78,North,0,0.0,0.0,93,0.04,,,-99.99,,2013-03-12 17:08:00,
2013-03-12 13:14:00,53.1,51.0,29.78,North,0,0.0,0.0,92,0.04,,,-99.99,,2013-03-12 17:14:00,
2013-03-12 13:20:00,53.4,51.3,29.78,North,0,0.0,0.0,92,0.04,,,-99.99,,2013-03-12 17:20:00,
2013-03-12 13:26:00,54.0,51.9,29.78,North,0,0.0,0.0,92,0.04,,,-99.99,,2013-03-12 17:26:00,
2013-03-12 13:32:00,54.3,52.0,29.78,North,0,0.0,0.0,92,0.04,,,-99.99,,2013-03-12 17:32:00,
2013-03-12 13:38:00,54.7,52.4,29.78,North,0,0.0,0.0,92,0.04,,,-99.99,,2013-03-12 17:38:00,
2013-03-12 13:44:00,54.9,51.6,29.78,North,0,0.0,0.0,88,0.04,,,-99.99,,2013-03-12 17:44:00,
2013-03-12 13:50:00,54.9,47.9,29.78,North,0,0.0,0.0,77,0.04,,,-99.99,,2013-03-12 17:50:00,
2013-03-12 13:56:00,55.6,47.3,29.78,North,0,0.0,0.0,73,0.04,,,-99.99,,2013-03-12 17:56:00,
2013-03-12 14:02:00,56.5,47.1,29.81,North,0,0.0,0.0,70,0.04,,,-99.99,,2013-03-12 18:02:00,
2013-03-12 14:08:00,57.0,44.9,29.81,North,0,0.0,0.0,63,0.04,,,-99.99,,2013-03-12 18:08:00,
2013-03-12 14:14:00,57.4,44.4,29.81,North,0,0.0,0.0,61,0.00,,,-99.99,,2013-03-12 18:14:00,
2013-03-12 14:20:00,58.1,44.2,29.81,North,0,0.0,0.0,59,0.00,,,-99.99,,2013-03-12 18:20:00,
2013-03-12 14:26:00,58.5,43.2,29.81,North,0,0.0,0.0,56,0.00,,,-99.99,,2013-03-12 18:26:00,
2013-03-12 14:32:00,58.8,42.0,29.81,North,0,0.0,0.0,53,0.00,,,-99.99,,2013-03-12 18:32:00,
2013-03-12 14:38:00,58.6,41.8,29.81,North,0,0.0,0.0,53,0.00,,,-99.99,,2013-03-12 18:38:00,
2013-03-12 14:44:00,58.8,41.5,29.81,North,0,0.0,0.0,52,0.00,,,-99.99,,2013-03-12 18:44:00,
2013-03-12 14:50:00,59.0,41.1,29.81,North,0,0.0,0.0,51,0.00,,,-99.99,,2013-03-12 18:50:00,
2013-03-12 14:56:00,58.8,40.4,29.81,North,0,0.0,0.0,50,0.00,,,-99.99,,2013-03-12 18:56:00,
2013-03-12 15:02:00,58.5,40.1,29.81,North,0,0.0,0.0,50,0.00,,,-99.99,,2013-03-12 19:02:00,
2013-03-12 15:08:00,58.1,39.8,29.81,North,0,0.0,0.0,50,0.00,,,-99.99,,2013-03-12 19:08:00,
2013-03-12 15:14:00,58.1,39.8,29.81,North,0,0.0,0.0,50,0.00,,,-99.99,,2013-03-12 19:14:00,
2013-03-12 15:20:00,57.9,39.0,29.81,North,0,0.0,0.0,49,0.00,,,-99.99,,2013-03-12 19:20:00,
2013-03-12 15:26:00,57.9,39.0,29.81,North,0,0.0,0.0,49,0.00,,,-99.99,,2013-03-12 19:26:00,
2013-03-12 15:32:00,57.6,38.2,29.81,North,0,0.0,0.0,48,0.00,,,-99.99,,2013-03-12 19:32:00,
2013-03-12 15:38:00,57.4,38.6,29.81,North,0,0.0,0.0,49,0.00,,,-99.99,,2013-03-12 19:38:00,
2013-03-12 15:44:00,57.6,38.2,29.84,North,0,0.0,0.0,48,0.00,,,-99.99,,2013-03-12 19:44:00,
2013-03-12 15:50:00,57.7,38.3,29.84,North,0,0.0,0.0,48,0.00,,,-99.99,,2013-03-12 19:50:00,
2013-03-12 15:56:00,57.6,37.6,29.84,North,0,0.0,0.0,47,0.00,,,-99.99,,2013-03-12 19:56:00,
2013-03-12 16:02:00,57.0,37.7,29.84,North,0,0.0,0.0,48,0.00,,,-99.99,,2013-03-12 20:02:00,
2013-03-12 16:08:00,56.5,37.2,29.84,North,0,0.0,0.0,48,0.00,,,-99.99,,2013-03-12 20:08:00,
2013-03-12 16:14:00,55.9,36.6,29.84,North,0,0.0,0.0,48,0.00,,,-99.99,,2013-03-12 20:14:00,
2013-03-12 16:20:00,55.9,36.6,29.84,North,0,0.0,0.0,48,0.00,,,-99.99,,2013-03-12 20:20:00,
2013-03-12 16:26:00,56.3,37.0,29.84,North,0,0.0,0.0,48,0.00,,,-99.99,,2013-03-12 20:26:00,
2013-03-12 16:32:00,55.9,35.5,29.84,North,0,0.0,0.0,46,0.00,,,-99.99,,2013-03-12 20:32:00,
2013-03-12 16:38:00,55.6,35.2,29.84,North,0,0.0,0.0,46,0.00,,,-99.99,,2013-03-12 20:38:00,
2013-03-12 16:44:00,55.8,36.0,29.84,North,0,0.0,0.0,47,0.00,,,-99.99,,2013-03-12 20:44:00,
2013-03-12 16:50:00,55.9,36.1,29.84,North,0,0.0,0.0,47,0.00,,,-99.99,,2013-03-12 20:50:00,
2013-03-12 16:56:00,56.7,36.2,29.84,North,0,0.0,0.0,46,0.00,,,-99.99,,2013-03-12 20:56:00,
2013-03-12 17:02:00,56.8,34.5,29.87,North,0,0.0,0.0,42,0.00,,,-99.99,,2013-03-12 21:02:00,
2013-03-12 17:08:00,56.1,34.5,29.87,North,0,0.0,0.0,44,0.00,,,-99.99,,2013-03-12 21:08:00,
2013-03-12 17:14:00,55.6,33.4,29.87,North,0,0.0,0.0,42,0.00,,,-99.99,,2013-03-12 21:14:00,
2013-03-12 17:20:00,55.2,33.7,29.87,North,0,0.0,0.0,44,0.00,,,-99.99,,2013-03-12 21:20:00,
2013-03-12 17:26:00,54.9,32.8,29.87,North,0,0.0,0.0,42,0.00,,,-99.99,,2013-03-12 21:26:00,
2013-03-12 17:32:00,54.5,31.8,29.87,North,0,0.0,0.0,41,0.00,,,-99.99,,2013-03-12 21:32:00,
2013-03-12 17:38:00,54.5,32.4,29.87,North,0,0.0,0.0,42,0.00,,,-99.99,,2013-03-12 21:38:00,
2013-03-12 17:44:00,54.5,31.8,29.87,North,0,0.0,0.0,41,0.00,,,-99.99,,2013-03-12 21:44:00,
2013-03-12 17:50:00,54.0,31.3,29.87,North,0,0.0,0.0,41,0.00,,,-99.99,,2013-03-12 21:50:00,
2013-03-12 17:56:00,54.0,31.3,29.87,North,0,0.0,0.0,41,0.00,,,-99.99,,2013-03-12 21:56:00,
2013-03-12 18:02:00,53.6,31.0,29.90,North,0,0.0,0.0,41,0.00,,,-99.99,,2013-03-12 22:02:00,
2013-03-12 18:08:00,52.9,30.4,29.90,North,0,0.0,0.0,41,0.00,,,-99.99,,2013-03-12 22:08:00,
2013-03-12 18:14:00,52.0,29.5,29.90,North,0,0.0,0.0,41,0.00,,,-99.99,,2013-03-12 22:14:00,
2013-03-12 18:20:00,51.3,29.5,29.90,North,0,0.0,0.0,42,0.00,,,-99.99,,2013-03-12 22:20:00,
2013-03-12 18:26:00,50.5,28.8,29.90,North,0,0.0,0.0,42,0.00,,,-99.99,,2013-03-12 22:26:00,
2013-03-12 18:32:00,50.0,28.4,29.90,North,0,0.0,0.0,42,0.00,,,-99.99,,2013-03-12 22:32:00,
2013-03-12 18:38:00,49.6,28.0,29.90,North,0,0.0,0.0,42,0.00,,,-99.99,,2013-03-12 22:38:00,
2013-03-12 18:44:00,49.1,27.5,29.90,North,0,0.0,0.0,42,0.00,,,-99.99,,2013-03-12 22:44:00,
2013-03-12 18:50:00,48.7,27.8,29.90,North,0,0.0,0.0,44,0.00,,,-99.99,,2013-03-12 22:50:00,
2013-03-12 18:56:00,48.4,27.5,29.90,North,0,0.0,0.0,44,0.00,,,-99.99,,2013-03-12 22:56:00,
2013-03-12 19:02:00,48.2,27.3,29.93,North,0,0.0,0.0,44,0.00,,,-99.99,,2013-03-12 23:02:00,
2013-03-12 19:08:00,47.8,27.5,29.93,North,0,0.0,0.0,45,0.00,,,-99.99,,2013-03-12 23:08:00,
2013-03-12 19:14:00,47.5,27.3,29.93,North,0,0.0,0.0,45,0.00,,,-99.99,,2013-03-12 23:14:00,
2013-03-12 19:20:00,47.1,27.5,29.93,North,0,0.0,0.0,46,0.00,,,-99.99,,2013-03-12 23:20:00,
2013-03-12 19:26:00,46.9,27.3,29.93,North,0,0.0,0.0,46,0.00,,,-99.99,,2013-03-12 23:26:00,
2013-03-12 19:32:00,46.8,27.2,29.93,North,0,0.0,0.0,46,0.00,,,-99.99,,2013-03-12 23:32:00,
2013-03-12 19:38:00,46.6,27.0,29.93,North,0,0.0,0.0,46,0.00,,,-99.99,,2013-03-12 23:38:00,
2013-03-12 19:44:00,46.2,27.2,29.96,North,0,0.0,0.0,47,0.00,,,-99.99,,2013-03-12 23:44:00,
2013-03-12 19:50:00,46.0,27.0,29.96,North,0,0.0,0.0,47,0.00,,,-99.99,,2013-03-12 23:50:00,
2013-03-12 19:56:00,45.9,26.4,29.96,North,0,0.0,0.0,46,0.00,,,-99.99,,2013-03-12 23:56:00,
2013-03-12 20:02:00,45.5,26.0,29.96,North,0,0.0,0.0,46,0.00,,,-99.99,,2013-03-13 00:02:00,
2013-03-12 20:08:00,45.3,25.8,29.96,North,0,0.0,0.0,46,0.00,,,-99.99,,2013-03-13 00:08:00,
2013-03-12 20:14:00,45.1,25.6,29.96,North,0,0.0,0.0,46,0.00,,,-99.99,,2013-03-13 00:14:00,
2013-03-12 20:20:00,44.8,25.4,29.96,North,0,0.0,0.0,46,0.00,,,-99.99,,2013-03-13 00:20:00,
2013-03-12 20:26:00,44.6,25.7,29.96,North,0,0.0,0.0,47,0.00,,,-99.99,,2013-03-13 00:26:00,
2013-03-12 20:32:00,44.2,25.4,29.96,North,0,0.0,0.0,47,0.00,,,-99.99,,2013-03-13 00:32:00,
2013-03-12 20:38:00,44.1,25.8,29.96,North,0,0.0,0.0,48,0.00,,,-99.99,,2013-03-13 00:38:00,
2013-03-12 20:44:00,43.7,25.5,29.96,North,0,0.0,0.0,48,0.00,,,-99.99,,2013-03-13 00:44:00,
2013-03-12 20:50:00,43.5,25.3,29.96,North,0,0.0,0.0,48,0.00,,,-99.99,,2013-03-13 00:50:00,
2013-03-12 20:56:00,43.5,25.8,29.96,North,0,0.0,0.0,49,0.00,,,-99.99,,2013-03-13 00:56:00,
2013-03-12 21:02:00,43.3,25.6,29.96,North,0,0.0,0.0,49,0.00,,,-99.99,,2013-03-13 01:02:00,
2013-03-12 21:08:00,43.2,25.5,29.96,North,0,0.0,0.0,49,0.00,,,-99.99,,2013-03-13 01:08:00,
2013-03-12 21:14:00,43.0,25.3,29.96,North,0,0.0,0.0,49,0.00,,,-99.99,,2013-03-13 01:14:00,
2013-03-12 21:20:00,42.8,25.1,29.96,North,0,0.0,0.0,49,0.00,,,-99.99,,2013-03-13 01:20:00,
2013-03-12 21:26:00,42.8,25.7,29.96,North,0,0.0,0.0,50,0.00,,,-99.99,,2013-03-13 01:26:00,
2013-03-12 21:32:00,42.8,25.7,29.96,North,0,0.0,0.0,50,0.00,,,-99.99,,2013-03-13 01:32:00,
2013-03-12 21:38:00,42.8,25.7,29.96,North,0,0.0,0.0,50,0.00,,,-99.99,,2013-03-13 01:38:00,
2013-03-12 21:44:00,42.6,25.5,29.99,North,0,0.0,0.0,50,0.00,,,-99.99,,2013-03-13 01:44:00,
2013-03-12 21:50:00,42.6,25.5,29.99,North,0,0.0,0.0,50,0.00,,,-99.99,,2013-03-13 01:50:00,
2013-03-12 21:56:00,42.4,25.3,29.99,North,0,0.0,0.0,50,0.00,,,-99.99,,2013-03-13 01:56:00,
2013-03-12 22:02:00,42.4,25.3,29.99,North,0,0.0,0.0,50,0.00,,,-99.99,,2013-03-13 02:02:00,
2013-03-12 22:08:00,42.4,25.3,29.99,North,0,0.0,0.0,50,0.00,,,-99.99,,2013-03-13 02:08:00,
2013-03-12 22:14:00,42.3,25.2,29.99,North,0,0.0,0.0,50,0.00,,,-99.99,,2013-03-13 02:14:00,
2013-03-12 22:20:00,42.3,25.2,29.99,North,0,0.0,0.0,50,0.00,,,-99.99,,2013-03-13 02:20:00,
2013-03-12 22:26:00,42.3,25.2,29.99,North,0,0.0,0.0,50,0.00,,,-99.99,,2013-03-13 02:26:00,
2013-03-12 22:32:00,42.1,25.0,29.99,North,0,0.0,0.0,50,0.00,,,-99.99,,2013-03-13 02:32:00,
2013-03-12 22:38:00,42.1,25.0,29.99,North,0,0.0,0.0,50,0.00,,,-99.99,,2013-03-13 02:38:00,
2013-03-12 22:44:00,42.1,25.0,29.99,North,0,0.0,0.0,50,0.00,,,-99.99,,2013-03-13 02:44:00,
2013-03-12 22:50:00,41.9,24.3,29.99,North,0,0.0,0.0,49,0.00,,,-99.99,,2013-03-13 02:50:00,
2013-03-12 22:56:00,41.7,24.1,29.99,North,0,0.0,0.0,49,0.00,,,-99.99,,2013-03-13 02:56:00,
2013-03-12 23:02:00,41.5,24.0,29.99,North,0,0.0,0.0,49,0.00,,,-99.99,,2013-03-13 03:02:00,
2013-03-12 23:08:00,41.5,24.0,29.99,North,0,0.0,0.0,49,0.00,,,-99.99,,2013-03-13 03:08:00,
2013-03-12 23:14:00,41.2,24.2,29.99,North,0,0.0,0.0,50,0.00,,,-99.99,,2013-03-13 03:14:00,
2013-03-12 23:20:00,41.2,24.2,29.99,North,0,0.0,0.0,50,0.00,,,-99.99,,2013-03-13 03:20:00,
2013-03-12 23:26:00,41.2,24.2,29.99,North,0,0.0,0.0,50,0.00,,,-99.99,,2013-03-13 03:26:00,
2013-03-12 23:32:00,41.0,24.0,29.99,North,0,0.0,0.0,50,0.00,,,-99.99,,2013-03-13 03:32:00,
2013-03-12 23:38:00,41.0,24.0,29.99,North,0,0.0,0.0,50,0.00,,,-99.99,,2013-03-13 03:38:00,
2013-03-12 23:44:00,40.8,23.8,29.99,North,0,0.0,0.0,50,0.00,,,-99.99,,2013-03-13 03:44:00,
2013-03-12 23:50:00,40.8,23.8,29.99,North,0,0.0,0.0,50,0.00,,,-99.99,,2013-03-13 03:50:00,
2013-03-12 23:56:00,41.0,23.5,29.99,North,0,0.0,0.0,49,0.00,,,-99.99,,2013-03-13 03:56:00,